Wind_Speed
17 18 18 18 19 20 20 19 18 16 13 13 12 11 10 9 7 6 6 6 6 5 3 2 3 3 5 6 7 8 8 8 9 10 10 10 10 9 9 10 10 10 9 8 8 8 8 8 9
17 17 18 18 21 21 20 19 17 15 14 14 13 12 11 9 8 7 6 7 7 6 4 3 4 3 5 6 7 8 9 9 10 11 10 10 10 10 10 10 10 10 9 8 8 9 8 9 9
18 18 18 19 22 22 21 19 18 17 16 15 14 13 11 9 9 8 8 8 8 7 6 4 3 3 5 6 7 8 9 10 10 11 11 11 11 10 11 10 10 9 9 8 8 9 8 8 8
18 19 19 21 22 22 21 20 19 18 16 16 16 14 12 11 10 10 9 8 8 8 7 5 4 4 5 6 7 8 9 10 10 11 12 11 11 10 10 9 9 9 8 8 9 9 8 8 7
17 18 20 22 22 22 21 20 19 17 16 16 16 15 13 12 11 11 10 10 9 9 7 6 4 5 6 7 7 9 9 9 10 10 11 11 9 9 9 9 8 8 8 8 8 8 7 7 7
17 19 21 21 21 21 20 19 18 16 16 16 15 15 14 13 12 12 12 11 10 9 8 8 7 6 7 7 8 9 9 10 10 10 11 11 10 9 9 9 9 8 8 7 8 7 7 7 6
16 18 20 19 19 19 19 18 16 16 16 16 16 16 15 13 13 13 13 12 10 9 7 7 7 7 7 7 8 9 9 10 10 10 10 10 10 9 9 9 9 7 7 7 7 7 7 6 6
16 17 17 16 17 17 17 17 16 16 17 16 17 16 15 14 14 14 13 12 11 10 8 6 7 8 8 7 8 9 9 10 10 10 10 10 10 9 9 9 8 7 6 6 6 7 7 7 7
13 14 14 14 15 15 16 16 17 17 17 18 17 16 16 15 14 14 14 13 12 11 9 8 8 8 8 8 8 9 10 10 10 10 11 10 10 9 9 8 8 7 7 6 5 6 7 8 7
11 11 13 12 14 15 15 15 17 17 18 17 17 17 17 16 15 14 14 14 13 13 11 9 9 8 9 9 8 9 10 10 10 10 10 10 10 9 9 9 8 7 7 6 5 5 6 8 7
8 8 10 10 12 13 13 13 15 16 17 17 16 17 17 17 16 14 13 13 13 13 12 11 9 9 9 9 9 9 9 9 10 10 10 9 10 9 8 8 7 7 6 6 5 5 5 5 5
5 5 6 7 9 11 12 13 14 15 15 16 16 16 17 17 17 16 14 14 14 13 13 12 11 10 9 9 8 9 9 9 9 9 10 10 10 9 8 8 8 7 6 5 5 4 4 4 4
4 2 4 6 7 9 11 11 13 14 14 15 15 15 15 16 16 16 15 14 13 12 12 12 11 11 10 8 8 8 8 8 9 9 9 10 10 9 8 7 7 7 6 5 5 5 4 5 5
4 2 2 5 7 8 10 11 12 13 13 14 14 14 14 14 15 15 14 13 12 11 11 10 10 10 9 8 8 8 8 7 8 8 8 9 9 9 8 7 7 7 6 5 5 4 4 5 6
6 3 1 4 6 7 8 10 11 11 12 14 14 13 13 14 14 14 13 13 12 11 10 10 10 10 9 8 8 7 7 6 6 7 8 8 8 8 8 7 7 7 6 5 5 5 5 5 6
5 4 2 1 4 5 6 8 10 11 13 14 14 12 12 13 13 13 12 12 11 10 9 9 9 9 9 7 7 7 6 5 5 5 6 7 8 8 7 7 7 7 6 6 5 5 5 5 5
6 4 3 2 2 3 5 6 9 10 12 14 14 12 11 11 12 12 11 11 11 9 8 8 8 7 7 7 6 5 5 5 4 4 5 6 7 7 7 6 5 6 6 6 6 6 5 5 6
7 5 5 4 3 4 5 6 8 9 10 12 12 12 11 10 11 10 10 10 10 9 8 8 7 6 5 5 5 5 3 3 4 4 4 4 5 6 6 6 5 5 5 5 6 6 5 5 6
9 7 6 6 6 6 6 8 8 9 9 10 11 11 10 10 9 9 10 10 9 8 8 7 6 6 5 4 4 4 3 3 3 3 3 4 5 6 6 5 5 5 5 5 6 7 7 6 7
10 10 9 8 9 10 9 9 10 11 10 10 10 9 8 10 9 8 9 9 9 8 7 7 6 5 4 4 3 3 2 2 2 2 3 3 4 5 6 5 5 5 6 6 6 7 7 7 7
12 13 12 11 11 11 12 12 12 12 12 12 12 11 9 11 11 10 8 8 8 8 7 6 6 5 4 4 3 3 2 0 1 2 2 3 4 5 6 5 5 6 6 6 6 6 7 7 7
12 12 13 13 13 13 13 15 13 13 14 13 14 13 11 11 12 10 7 7 8 7 7 6 5 6 5 4 4 3 3 3 2 2 3 3 4 5 5 5 6 6 7 7 7 7 7 7 7
14 14 14 14 15 16 16 17 15 15 16 15 14 13 11 12 11 9 8 7 7 7 6 5 5 5 5 5 4 3 2 2 3 4 4 4 4 5 5 4 4 5 6 7 8 8 8 8 9
15 16 17 17 18 17 16 18 18 17 17 17 14 12 12 12 11 10 9 9 7 7 7 6 5 6 5 5 5 4 4 3 3 4 4 5 6 5 5 4 5 6 7 7 8 9 9 9 9
16 17 18 18 17 16 16 18 18 17 17 19 16 13 13 13 13 12 11 11 9 8 8 7 6 6 6 6 6 6 5 5 5 6 6 6 6 7 7 7 7 8 8 9 9 10 10 10 10
17 18 18 18 17 17 18 19 17 17 17 18 17 15 14 14 14 13 12 11 10 9 9 8 8 8 8 8 7 7 7 7 7 8 8 8 9 9 9 9 9 9 10 10 11 11 11 12 13
17 18 18 19 20 20 20 20 17 17 16 16 16 15 14 15 15 14 14 14 12 12 11 11 10 10 10 9 9 9 9 9 9 9 9 9 10 10 11 11 11 12 12 12 12 13 13 14 15
18 18 19 21 22 23 22 20 16 16 16 16 16 15 15 15 15 15 15 14 12 12 13 12 11 11 11 11 11 11 11 11 11 11 11 11 11 12 12 13 13 13 14 15 15 15 16 16 17
18 20 21 21 22 24 23 21 18 17 18 19 18 18 16 16 17 16 15 15 14 13 14 14 13 13 13 13 13 13 13 12 13 13 14 14 14 14 15 15 15 16 16 16 17 18 18 19 19
20 21 22 23 23 23 24 22 20 20 20 20 20 19 18 18 17 16 15 15 16 16 16 15 14 15 15 16 16 16 16 15 15 15 16 17 17 17 17 18 18 18 18 19 19 19 20 20 21
Wind_Direction
78 76 70 64 60 56 51 49 46 43 40 41 38 37 40 44 41 38 28 21 27 33 43 92 133 154 169 171 172 174 174 172 170 167 169 166 166 170 168 169 169 166 166 164 157 154 148 146 148
75 71 65 59 57 53 50 48 45 44 41 40 38 38 37 41 40 36 33 31 36 44 56 93 123 160 177 173 173 172 173 171 171 169 169 167 166 169 168 168 169 168 167 166 160 153 149 147 149
74 69 63 59 56 50 47 41 40 41 40 38 38 39 38 41 41 38 40 40 39 48 58 82 113 149 164 169 171 171 170 169 170 169 168 168 168 166 161 163 170 170 166 162 161 155 150 152 151
73 69 63 55 53 48 44 43 39 38 36 38 40 38 38 38 42 43 43 42 45 55 60 78 121 140 156 161 165 169 169 171 172 170 170 168 165 161 159 162 166 169 165 160 160 157 155 155 153
76 67 59 50 48 45 39 40 38 35 35 38 41 39 36 39 45 44 40 46 53 58 71 86 110 126 138 151 159 164 169 170 173 171 170 168 162 158 156 158 159 165 164 162 159 155 159 158 155
73 61 55 48 46 43 40 39 36 31 34 37 39 39 40 42 44 46 45 49 56 64 83 92 94 116 133 143 151 159 164 167 170 171 168 167 165 160 159 158 154 157 160 165 167 167 167 168 166
73 65 55 45 43 42 40 38 36 33 34 36 40 39 40 44 45 46 46 46 52 65 84 96 100 116 127 137 151 155 160 164 164 165 165 163 164 161 160 162 159 161 168 173 171 173 176 175 175
73 69 60 49 42 39 38 40 38 39 39 39 40 41 42 46 48 47 46 47 58 64 72 88 100 107 116 134 150 153 156 159 160 162 162 162 164 163 162 163 164 162 166 170 173 178 177 176 175
73 68 63 52 45 41 38 37 40 39 39 39 41 42 44 45 49 51 51 56 63 68 74 87 89 98 103 119 141 147 152 158 160 162 164 165 165 166 167 165 166 166 164 165 172 176 177 174 172
63 59 60 51 46 39 35 30 36 37 38 41 43 43 45 46 49 52 53 58 63 69 77 88 89 93 97 107 126 141 151 155 160 164 166 167 166 169 172 172 172 173 170 174 177 172 182 178 173
66 60 59 50 43 33 29 31 33 33 36 39 41 43 44 47 49 52 55 57 63 67 73 82 87 88 91 95 111 134 146 150 155 164 163 163 165 167 171 173 173 171 170 172 173 172 181 181 175
83 73 54 50 48 37 33 31 31 28 30 36 38 40 41 44 47 48 51 54 58 65 68 74 77 82 90 92 101 117 135 145 149 158 163 164 164 165 168 168 172 177 178 182 181 182 175 183 181
140 88 36 43 49 36 29 27 27 26 28 29 33 38 40 39 41 43 46 49 54 62 67 71 74 79 86 91 101 114 132 141 142 149 157 162 167 169 172 175 180 179 186 185 178 185 185 192 188
170 159 44 38 36 35 28 22 19 20 21 21 27 33 37 35 35 39 43 46 51 57 62 67 70 74 81 89 101 112 128 140 141 146 154 161 165 164 167 176 177 176 184 186 185 191 188 193 195
186 172 73 34 28 30 23 13 9 9 12 14 22 26 29 30 31 33 39 45 47 53 58 62 69 73 79 85 94 104 112 129 145 151 156 162 164 168 169 171 177 174 172 178 186 193 191 190 191
181 168 151 54 6 12 2 2 358 359 6 7 12 16 25 26 25 27 34 40 42 49 57 61 66 73 78 85 89 96 103 110 129 148 155 164 170 170 170 176 178 181 183 187 186 193 191 190 189
194 183 193 214 280 330 325 333 340 347 358 -0 3 12 17 22 23 24 27 31 36 42 50 56 60 64 68 71 83 89 98 110 121 139 156 167 172 171 172 179 185 189 191 192 193 193 196 199 195
207 216 212 214 255 290 292 307 316 331 344 348 356 4 10 15 19 18 21 25 29 33 39 43 45 47 52 65 68 75 86 115 127 140 150 169 177 176 182 187 188 193 198 198 201 201 201 204 207
220 227 227 226 251 273 287 296 307 315 324 335 346 355 0 2 7 13 19 22 22 23 25 28 29 36 42 54 58 59 73 101 127 149 161 178 183 182 185 190 195 198 205 214 218 217 213 216 223
236 238 236 244 251 261 277 289 297 304 309 317 326 339 345 346 351 357 8 13 14 17 18 20 18 17 23 35 33 29 42 74 99 144 173 192 193 194 202 211 210 210 213 221 226 220 218 222 230
239 239 237 248 251 261 274 276 284 297 304 313 319 326 333 337 336 337 348 358 1 7 7 5 3 4 11 13 354 339 339 320 154 170 185 201 198 205 207 214 220 218 222 228 224 226 227 226 231
237 233 239 246 246 249 261 272 275 285 296 304 311 316 317 326 329 331 339 345 348 354 356 356 358 355 349 342 337 320 295 270 240 225 227 228 229 228 223 225 228 228 229 228 232 235 237 240 244
232 235 245 247 252 255 256 262 265 275 284 292 299 302 301 312 316 317 321 326 331 337 339 338 338 341 339 332 320 311 303 280 255 247 246 251 248 246 242 233 225 226 232 235 240 239 248 251 254
238 243 246 250 250 253 256 260 266 271 281 283 283 286 291 303 306 302 303 302 305 315 320 321 320 318 318 317 317 309 294 281 269 260 262 262 257 252 249 249 247 246 244 244 246 249 253 256 258
241 243 246 248 248 251 255 263 270 277 281 280 275 277 283 289 293 294 296 295 287 294 301 302 305 305 304 303 302 300 295 283 272 267 265 268 263 258 257 254 254 251 247 250 254 256 257 258 260
244 246 248 252 249 252 257 262 271 276 276 275 272 271 276 283 288 287 289 289 288 286 285 287 291 294 295 295 292 292 291 284 273 268 266 266 265 264 263 262 260 259 258 259 259 259 260 262 262
248 248 252 255 255 255 258 263 267 272 274 271 269 271 270 277 283 288 293 294 285 286 283 278 280 282 286 288 288 288 287 285 278 273 270 271 267 266 265 264 264 265 265 265 264 262 262 264 267
246 251 251 253 255 256 257 260 269 268 268 267 265 265 269 274 279 283 288 287 284 283 284 277 274 277 280 282 283 282 281 279 274 270 269 271 273 274 271 269 269 271 268 266 265 264 267 269 271
244 247 251 252 256 256 257 259 264 268 268 268 268 266 266 275 280 280 278 280 280 276 276 274 271 275 278 281 281 280 278 277 275 273 270 271 272 273 274 274 274 272 271 270 268 268 270 271 271
242 243 247 250 252 257 259 261 264 266 267 269 266 267 268 273 274 276 281 283 283 280 281 277 275 275 278 279 277 278 278 276 276 276 275 274 272 272 273 273 274 274 271 269 269 269 271 273 272
Height
5897 5895 5895 5895 5895 5893 5892 5891 5890 5890 5889 5887 5886 5886 5885 5885 5885 5886 5883 5880 5879 5878 5877 5876 5877 5878 5879 5881 5882 5884 5885 5887 5888 5889 5891 5892 5893 5894 5895 5896 5897 5898 5899 5900 5900 5901 5902 5903 5903
5898 5897 5898 5897 5895 5894 5894 5893 5893 5892 5890 5888 5888 5887 5886 5885 5884 5883 5882 5880 5879 5878 5876 5876 5877 5878 5879 5881 5882 5884 5885 5886 5888 5889 5891 5892 5893 5894 5895 5896 5897 5899 5900 5901 5901 5902 5903 5904 5904
5900 5899 5900 5899 5896 5895 5895 5894 5894 5892 5891 5889 5889 5888 5887 5886 5884 5883 5882 5880 5879 5878 5877 5877 5877 5878 5879 5881 5882 5883 5885 5886 5888 5889 5891 5892 5894 5894 5895 5897 5898 5899 5900 5901 5902 5903 5904 5904 5905
5903 5903 5902 5900 5897 5897 5896 5896 5895 5894 5893 5891 5890 5889 5888 5887 5885 5884 5882 5881 5879 5878 5878 5877 5877 5878 5879 5881 5882 5883 5885 5887 5888 5890 5891 5893 5894 5895 5896 5897 5898 5899 5900 5901 5902 5903 5904 5905 5905
5904 5904 5902 5900 5899 5899 5899 5897 5897 5896 5895 5893 5892 5890 5889 5887 5885 5884 5882 5881 5880 5879 5878 5877 5877 5879 5880 5881 5882 5883 5885 5887 5889 5890 5892 5893 5895 5896 5897 5898 5898 5899 5900 5902 5903 5904 5905 5905 5906
5907 5905 5903 5902 5901 5901 5901 5900 5899 5898 5896 5895 5894 5892 5890 5889 5887 5885 5883 5882 5881 5880 5879 5879 5878 5879 5880 5881 5882 5884 5886 5887 5889 5891 5892 5894 5895 5896 5897 5898 5899 5900 5901 5902 5903 5904 5905 5906 5906
5909 5907 5905 5905 5904 5904 5904 5903 5902 5900 5898 5897 5895 5893 5892 5890 5888 5886 5885 5883 5882 5881 5881 5880 5880 5880 5880 5881 5882 5884 5886 5888 5889 5891 5893 5894 5896 5897 5898 5899 5900 5901 5902 5902 5903 5904 5905 5906 5906
5910 5909 5908 5908 5907 5906 5906 5905 5904 5902 5901 5898 5896 5894 5893 5892 5890 5888 5886 5885 5883 5882 5882 5882 5882 5881 5881 5882 5883 5884 5886 5888 5890 5892 5893 5895 5896 5897 5898 5899 5901 5901 5902 5903 5903 5904 5905 5906 5906
5911 5911 5910 5910 5910 5909 5908 5907 5906 5904 5902 5900 5898 5896 5895 5893 5891 5889 5888 5887 5885 5884 5883 5883 5883 5883 5883 5883 5884 5885 5886 5888 5890 5892 5893 5895 5896 5897 5899 5900 5901 5902 5902 5903 5903 5904 5905 5905 5906
5912 5912 5912 5912 5912 5911 5909 5909 5908 5906 5904 5902 5900 5898 5897 5894 5893 5891 5890 5889 5887 5885 5885 5884 5884 5884 5884 5884 5885 5886 5887 5889 5890 5892 5894 5895 5896 5898 5899 5900 5901 5901 5902 5903 5904 5904 5905 5905 5905
5913 5913 5913 5913 5913 5913 5911 5910 5910 5908 5907 5905 5903 5901 5899 5896 5895 5893 5892 5890 5889 5888 5887 5886 5885 5885 5885 5885 5886 5887 5888 5889 5891 5892 5894 5895 5897 5898 5899 5900 5901 5901 5902 5903 5904 5904 5905 5905 5905
5914 5914 5914 5914 5914 5914 5913 5912 5911 5910 5909 5907 5905 5902 5900 5898 5896 5895 5893 5892 5890 5889 5889 5888 5887 5887 5887 5887 5887 5888 5889 5890 5891 5892 5894 5895 5896 5897 5899 5900 5901 5902 5903 5904 5904 5904 5905 5905 5906
5914 5915 5915 5914 5914 5915 5914 5914 5913 5911 5910 5908 5906 5904 5902 5900 5899 5897 5895 5893 5892 5891 5890 5890 5889 5888 5888 5888 5888 5889 5889 5890 5892 5893 5894 5895 5896 5898 5899 5900 5901 5902 5903 5904 5904 5904 5905 5906 5906
5914 5914 5915 5915 5915 5916 5915 5914 5914 5912 5911 5910 5908 5906 5904 5902 5901 5899 5897 5896 5894 5893 5892 5891 5890 5890 5889 5889 5890 5889 5890 5891 5892 5893 5894 5896 5897 5898 5899 5900 5901 5902 5903 5903 5904 5904 5905 5905 5906
5914 5915 5916 5915 5915 5916 5916 5915 5914 5913 5912 5911 5909 5907 5906 5904 5902 5900 5899 5897 5896 5894 5893 5892 5892 5891 5891 5891 5891 5891 5891 5892 5893 5894 5895 5896 5897 5898 5899 5900 5901 5902 5902 5903 5904 5904 5904 5905 5905
5914 5915 5916 5916 5915 5915 5917 5915 5915 5913 5913 5912 5910 5909 5907 5905 5904 5902 5900 5899 5897 5896 5895 5894 5893 5893 5892 5892 5892 5892 5893 5893 5893 5894 5895 5896 5897 5898 5899 5900 5901 5902 5902 5903 5903 5904 5904 5904 5905
5913 5914 5914 5915 5914 5914 5915 5915 5914 5913 5913 5912 5911 5910 5907 5906 5905 5903 5902 5900 5898 5897 5896 5896 5895 5894 5894 5893 5893 5893 5893 5893 5893 5894 5895 5895 5896 5898 5899 5900 5901 5901 5902 5902 5903 5903 5904 5904 5904
5911 5911 5912 5912 5913 5913 5913 5914 5913 5913 5912 5912 5911 5910 5908 5906 5906 5904 5903 5901 5899 5898 5897 5896 5896 5895 5894 5894 5894 5894 5893 5893 5893 5894 5894 5895 5896 5897 5898 5899 5900 5900 5901 5901 5902 5902 5903 5903 5903
5908 5909 5909 5910 5911 5911 5911 5912 5912 5912 5911 5911 5911 5910 5908 5907 5906 5905 5904 5902 5900 5899 5898 5897 5896 5896 5895 5894 5894 5894 5894 5893 5893 5894 5894 5895 5896 5896 5897 5898 5899 5899 5900 5900 5900 5901 5901 5901 5902
5905 5906 5907 5908 5908 5909 5909 5910 5911 5910 5910 5910 5909 5908 5907 5906 5905 5905 5904 5902 5901 5899 5898 5897 5896 5896 5895 5895 5895 5894 5894 5894 5894 5894 5894 5895 5895 5896 5897 5897 5897 5898 5898 5899 5899 5899 5899 5899 5900
5902 5903 5905 5906 5906 5906 5907 5907 5907 5908 5908 5908 5908 5907 5906 5905 5905 5904 5903 5902 5900 5899 5898 5897 5896 5896 5895 5895 5894 5894 5894 5894 5894 5894 5894 5894 5894 5895 5895 5895 5895 5896 5897 5897 5897 5898 5898 5898 5898
5899 5901 5902 5902 5903 5903 5905 5904 5905 5905 5905 5905 5905 5905 5905 5904 5903 5902 5902 5901 5900 5899 5898 5897 5896 5896 5895 5894 5894 5894 5893 5893 5893 5893 5893 5893 5893 5893 5893 5893 5893 5894 5895 5895 5895 5896 5896 5896 5896
5897 5898 5898 5899 5900 5901 5901 5901 5902 5902 5901 5902 5902 5903 5903 5902 5901 5900 5899 5899 5898 5898 5897 5896 5896 5895 5894 5894 5893 5893 5892 5891 5891 5891 5891 5892 5892 5892 5891 5891 5891 5892 5892 5893 5893 5893 5893 5893 5893
5893 5895 5895 5896 5896 5897 5898 5898 5898 5898 5898 5897 5898 5899 5900 5899 5898 5898 5897 5896 5896 5896 5895 5895 5895 5894 5893 5892 5892 5891 5891 5890 5890 5889 5890 5890 5890 5890 5890 5890 5890 5890 5890 5890 5890 5890 5890 5890 5890
5889 5890 5891 5892 5892 5893 5894 5893 5895 5894 5894 5893 5893 5894 5895 5896 5895 5895 5895 5893 5892 5892 5893 5893 5893 5892 5892 5891 5890 5889 5889 5888 5888 5887 5887 5887 5887 5888 5888 5887 5887 5888 5888 5888 5887 5887 5887 5887 5887
5885 5886 5887 5888 5888 5889 5889 5889 5891 5890 5889 5889 5890 5891 5891 5892 5892 5892 5891 5890 5889 5889 5890 5890 5890 5890 5889 5888 5888 5887 5887 5886 5886 5885 5885 5885 5885 5885 5885 5885 5885 5885 5885 5885 5884 5884 5884 5884 5884
5881 5881 5882 5883 5883 5883 5884 5885 5886 5886 5885 5885 5886 5887 5888 5888 5888 5888 5888 5888 5887 5887 5887 5887 5887 5887 5886 5886 5885 5885 5884 5883 5882 5882 5882 5882 5882 5881 5881 5881 5882 5881 5881 5881 5881 5881 5880 5880 5880
5876 5877 5878 5878 5878 5878 5879 5880 5882 5881 5881 5882 5883 5883 5884 5884 5884 5884 5884 5884 5884 5884 5883 5883 5883 5883 5883 5883 5882 5881 5881 5880 5879 5879 5879 5878 5878 5878 5877 5877 5877 5877 5877 5877 5877 5876 5876 5876 5875
5871 5872 5872 5872 5873 5873 5873 5877 5876 5876 5876 5877 5878 5878 5879 5879 5879 5879 5880 5880 5879 5879 5879 5879 5878 5879 5878 5878 5878 5878 5877 5876 5876 5875 5874 5874 5874 5874 5873 5873 5873 5872 5872 5872 5872 5871 5871 5870 5870
5865 5865 5866 5868 5868 5868 5868 5872 5871 5871 5871 5872 5872 5873 5874 5875 5875 5874 5874 5875 5875 5874 5874 5873 5873 5874 5873 5873 5873 5872 5872 5871 5870 5870 5869 5869 5869 5868 5868 5868 5867 5867 5867 5866 5866 5866 5865 5864 5864